Location: Laura�t
(43.9341°N, 0.2497°E)
Time: 23:32:34
(UTC+00:00)

ARGOS - Pass Details

Date: 03 March 2021
Orbit: 819 x 835 km, 98.4° (Epoch: 17 April)

Event Time Altitude Azimuth Distance (km) Brightness Sun altitude
Rises 19:29:12 0° 182° (S) 3,364 6.3 -18.6°
Reaches altitude 10° 19:31:38 10° 189° (S) 2,436 5.6 -19.0°
Maximum altitude 19:36:48 45° 261° (W) 1,120 4.3 -19.9°
Drops below altitude 10° 19:42:02 10° 334° (NNW) 2,457 6.1 -20.8°
Sets 19:44:31 0° 341° (NNW) 3,395 6.8 -21.3°
